Printer-friendly version
Follow the MPC on Twitter Follow the MPC on Facebook The MPC blog
Minor Planet Center

MPEC 2004-B40 : 2004 BO41

The following Minor Planet Electronic Circular may be linked-to from your own Web pages, but must not otherwise be redistributed electronically.

A form allowing access to any MPEC is at the bottom of this page.


Read MPEC 2004-B39 Read MPEC 2004-B41


M.P.E.C. 2004-B40                                Issued 2004 Jan. 24, 13:08 UT

     The Minor Planet Electronic Circulars contain information on unusual
         minor planets and routine data on comets.  They are published
   on behalf of Commission 20 of the International Astronomical Union by the
          Minor Planet Center, Smithsonian Astrophysical Observatory,
                          Cambridge, MA 02138, U.S.A.

         Supported in part by the Steven and Michele Kirsch Foundation
             Prepared using the Tamkin Foundation Computer Network

                              MPC@CFA.HARVARD.EDU
          URL http://cfa-www.harvard.edu/iau/mpc.html  ISSN 1523-6714

                                   2004 BO41

Observations:
     K04B41O* C2004 01 19.46220 17 07 39.02 +35 02 51.4          17.9   EB040704
     K04B41O  C2004 01 19.47430 17 07 43.35 +35 01 50.5          18.0   EB040704
     K04B41O  C2004 01 19.48644 17 07 47.72 +35 00 49.0          18.0   EB040704
     K04B41O  C2004 01 19.51051 17 07 56.30 +34 58 47.8          18.2   EB040704
     K04B41O  C2004 01 23.45809 17 32 25.14 +28 38 20.6          17.7   EB040704
     K04B41O  C2004 01 23.45829 17 32 25.14 +28 38 19.2          18.3   EB040704
     K04B41O  C2004 01 23.47933 17 32 33.19 +28 36 04.0          18.3   EB040704
     K04B41O  C2004 01 23.47958 17 32 33.20 +28 36 02.5          18.9   EB040704
     K04B41O  C2004 01 23.47978 17 32 33.33 +28 36 02.3          18.8   EB040704
     K04B41O  C2004 01 23.49310 17 32 38.50 +28 34 35.6          18.4   EB040704
     K04B41O  C2004 01 23.49330 17 32 38.47 +28 34 33.8          18.0   EB040704
     K04B41O  C2004 01 23.49350 17 32 38.54 +28 34 33.3          19.1   EB040704
     K04B41O  C2004 01 23.49371 17 32 38.54 +28 34 31.5          18.7   EB040704
     K04B41O  C2004 01 23.50605 17 32 43.38 +28 33 12.1          18.3   EB040704
     K04B41O  C2004 01 23.50625 17 32 43.42 +28 33 11.0          18.4   EB040704
     K04B41O  C2004 01 23.50645 17 32 43.55 +28 33 10.3          18.8   EB040704
     K04B41O  C2004 01 23.50665 17 32 43.51 +28 33 08.0          19.0   EB040704
     K04B41O  C2004 01 23.51916 17 32 48.33 +28 31 47.7          18.2   EB040704
     K04B41O  C2004 01 23.51936 17 32 48.36 +28 31 46.3          18.3   EB040704
     K04B41O  C2004 01 23.51956 17 32 48.49 +28 31 44.9          18.7   EB040704
     K04B41O  C2004 01 23.51976 17 32 48.46 +28 31 43.5          19.1   EB040704
     K04B41O  C2004 01 24.23834 17 37 25.30 +27 11 59.8          18.9 R EB040J95
     K04B41O  C2004 01 24.24215 17 37 26.76 +27 11 34.5          18.6 R EB040J95
     K04B41O  C2004 01 24.24591 17 37 28.26 +27 11 08.6          18.9 R EB040J95

Observer details:
704 Lincoln Laboratory ETS, New Mexico.  Observers M. Blythe, F. Shelly,
    M. Bezpalko, R. Huber, L. Manguso, D. Torres, R. Kracke, M. McCleary,
    H. Stange, A. Milner.  Measurers J. Stuart, R. Sayer, J. Evans, J. Kommers.
    1.0-m f/2.15 reflector + CCD.
J95 Great Shefford.  Observer P. Birtwhistle.  0.30-m f/6.3 Schmidt-Cassegrain
    + CCD.

Orbital elements:
2004 BO41
Epoch 2004 Jan. 16.0 TT = JDT 2453020.5                 MPC
M 306.51758              (2000.0)            P               Q
n   0.94801891     Peri.  254.04502     -0.54775840     +0.80721212
a   1.0262615      Node   337.92391     -0.34430099     -0.45707371
e   0.4974685      Incl.   35.81528     -0.76250742     -0.37348657
P   1.04           H   16.8           G   0.15
From 24 observations 2004 Jan. 19-24.

Ephemeris:
2004 BO41                a,e,i = 1.03, 0.50, 36                  q = 0.5157
Date    TT    R. A. (2000) Decl.     Delta      r     Elong.  Phase     V
2004 01 16    16 47.37   +39 27.0    0.395    0.952    73.8    82.7    17.6
2004 01 18    16 58.93   +37 01.6    0.377    0.934    71.4    86.1    17.6
2004 01 20    17 10.86   +34 16.6    0.361    0.916    68.6    89.9    17.6
2004 01 22    17 23.17   +31 09.8    0.345    0.897    65.4    94.1    17.6
2004 01 24    17 35.86   +27 39.1    0.331    0.879    61.9    98.6    17.7
2004 01 26    17 48.93   +23 43.3    0.319    0.860    58.1   103.5    17.8

Kyle E. Smalley              (C) Copyright 2004 MPC           M.P.E.C. 2004-B40

Read MPEC 2004-B39 Read MPEC 2004-B41


MPEC number:

Enter an MPEC number in one of the following forms:

  • 1997-B01 (the full form)
  • J97B01 (the packed version of the full form)
  • B01 (the abbreviated form)

Valid HTML 4.01!